User: anonymous   Login
Location: Dugenta
(41.1333°N, 14.4500°E)
Time: 17:49:21
(UTC+00:00)
Language:

Cosmos 2218 Rocket - Orbit

View from above orbital plane
View from above orbital plane
View from above satellite
View from above satellite

Ground track
Ground track

The orbit data is extracted from the following two-line orbital elements,

1 22208U 92073B   21127.91434962  .00000014  00000-0 -18107-5 0  9994
2 22208  82.9216  46.4975 0035239  37.2493  35.6002 13.75161501431003
Epoch (UTC): 07 May 2021 21:56:39
Eccentricity: 0.0035239
inclination: 82.9216°
perigee height: 955 km
apogee height: 1007 km
right ascension of ascending node: 46.4975°
argument of perigee: 37.2493°
revolutions per day: 13.75161501
mean anomaly at epoch: 35.6002°
orbit number at epoch: 43100

The dashed part of the orbit path shows where the satellite is in the earth's shadow,  

DLR